Home > Weather > Sinsheim > Past weeks

Flag for Germany Past Weather in Sinsheim, Baden-Württemberg, Germany — Yesterday and Last 2 Weeks

Now
73 °F

Scattered clouds.


Feels Like: 77 °F
Forecast: 58 / 72 °F
Wind: 10 mph from Southwest

Location: Mannheim City

Current Time: Jun 29, 2016 at 2:52:34 PM

Latest Report: Jun 29, 2016 at 1:50 PM


Visibility: N/A

Pressure: 29.98 "Hg

Humidity: 53%

Dew Point: 55 °F

Location of SinsheimLocation

Past Weather in Sinsheim — Graph

°F

Sinsheim Temperature Yesterday

Maximum temperature yesterday: 72 °F (at 5:50 PM)
Minimum temperature yesterday: 61 °F (at 5:50 AM)
Average temperature yesterday: 67 °F

High & Low Weather Summary for the Past Weeks

 TemperatureHumidityPressure
High93 °F (Jun 23, 5:50 PM)100% (Jun 14, 7:50 PM)30.24 "Hg (Jun 14, 7:50 PM)
Low52 °F (Jun 20, 5:20 AM)32% (Jun 23, 7:20 PM)29.53 "Hg (Jun 14, 2:20 PM)
Average68 °F72%29.98 "Hg
* Reported Jun 14 1:20 PM — Jun 29 1:20 PM, Sinsheim, Weather by CustomWeather, © 2016

Note: Actual official high and low records may vary slightly from our data, if they occured in-between our weather recording intervals... More about our weather records

Advertising

Sinsheim Weather History for the Previous 24 Hours

Scroll right to see more
 ConditionsComfort  
Time TempWeatherWind HumidityBarometerVisibility
1:20 PM
Wed, Jun 29
72 °FScattered clouds.12 mph57%29.98 "HgN/A
12:50 PM72 °FBroken clouds.14 mph57%29.98 "HgN/A
12:20 PM72 °FBroken clouds.13 mph57%29.98 "HgN/A
11:50 AM70 °FBroken clouds.14 mph57%29.98 "HgN/A
11:20 AM72 °FBroken clouds.10 mph57%29.98 "HgN/A
10:50 AM70 °FBroken clouds.10 mph57%29.98 "HgN/A
10:20 AM70 °FScattered clouds.12 mph60%29.98 "HgN/A
9:50 AM70 °FScattered clouds.13 mph64%29.98 "HgN/A
9:20 AM68 °FBroken clouds.9 mph73%29.98 "HgN/A
8:50 AM68 °FBroken clouds.7 mph78%29.95 "HgN/A
8:20 AM68 °FBroken clouds.7 mph83%29.95 "HgN/A
7:50 AM66 °FScattered clouds.6 mph88%29.95 "HgN/A
7:20 AM64 °FScattered clouds.7 mph100%29.95 "HgN/A
6:50 AM64 °FScattered clouds.5 mph100%29.95 "HgN/A
6:20 AM64 °FLight rain. Partly cloudy.5 mph100%29.95 "HgN/A
5:50 AM64 °FPartly cloudy.7 mph100%29.95 "HgN/A
8:50 PM
Tue, Jun 28
68 °FBroken clouds.5 mph83%29.98 "HgN/A
8:20 PM70 °FOvercast.5 mph73%29.98 "HgN/A
7:50 PM70 °FSunny.5 mph69%29.98 "Hg10 mi
7:20 PM70 °FSunny.3 mph64%29.98 "Hg10 mi
6:50 PM70 °FSunny.3 mph64%29.98 "Hg10 mi
6:20 PM70 °FPassing clouds.5 mph64%30.01 "HgN/A
5:50 PM72 °FSunny.3 mph65%30.01 "Hg10 mi
5:20 PM70 °FSunny.3 mph73%30.01 "Hg10 mi
4:50 PM68 °FBroken clouds.5 mph78%30.04 "HgN/A
4:20 PM68 °FBroken clouds.6 mph78%30.04 "HgN/A
3:50 PM68 °FBroken clouds.6 mph83%30.04 "HgN/A
3:20 PM68 °FLight rain. Partly sunny.5 mph83%30.04 "HgN/A
2:50 PM68 °FPartly sunny.6 mph83%30.04 "HgN/A
2:20 PM68 °FScattered showers. Broken clouds.5 mph78%30.07 "HgN/A
Weather by CustomWeather, © 2016

See weather overviewHow to use our weather pages